Date_Time,Julian_Date,Latitude,Longitude,Instrument_Depth,U,V,Speed,Direction
(yyyy-mm-dd hh:mn:ss UTC),(JD),(+ deg. North),(+ deg. East),(m),(cm/s),(cm/s),(cm/s),(deg True)
1983-04-25 18:00:00 UTC,2445450.250000,28.7317,-95.2428,0201,0.83,3.91,4.0000,12.0000
1983-04-25 18:30:00 UTC,2445450.270833,28.7317,-95.2428,0201,0.07,2.00,2.0000,2.0000
1983-04-25 19:00:00 UTC,2445450.291667,28.7317,-95.2428,0201,-1.73,-1.00,2.0000,240.0000
1983-04-25 19:30:00 UTC,2445450.312500,28.7317,-95.2428,0201,-3.99,-3.01,5.0000,233.0000
1983-04-25 20:00:00 UTC,2445450.333333,28.7317,-95.2428,0201,-6.04,-5.25,8.0000,229.0000
1983-04-25 20:30:00 UTC,2445450.354167,28.7317,-95.2428,0201,-6.16,-7.88,10.0000,218.0000
1983-04-25 21:00:00 UTC,2445450.375000,28.7317,-95.2428,0201,-6.10,-11.48,13.0000,208.0000
1983-04-25 21:30:00 UTC,2445450.395833,28.7317,-95.2428,0201,-6.58,-13.48,15.0000,206.0000
1983-04-25 22:00:00 UTC,2445450.416667,28.7317,-95.2428,0201,-7.98,-15.01,17.0000,208.0000
1983-04-25 22:30:00 UTC,2445450.437500,28.7317,-95.2428,0201,-8.63,-16.93,19.0000,207.0000
1983-04-25 23:00:00 UTC,2445450.458333,28.7317,-95.2428,0201,-8.77,-17.98,20.0000,206.0000
1983-04-25 23:30:00 UTC,2445450.479167,28.7317,-95.2428,0201,-8.45,-18.13,20.0000,205.0000
1983-04-26 00:00:00 UTC,2445450.500000,28.7317,-95.2428,0201,-8.45,-18.13,20.0000,205.0000
1983-04-26 00:30:00 UTC,2445450.520833,28.7317,-95.2428,0201,-8.13,-18.27,20.0000,204.0000
1983-04-26 01:00:00 UTC,2445450.541667,28.7317,-95.2428,0201,-7.12,-17.62,19.0000,202.0000
1983-04-26 01:30:00 UTC,2445450.562500,28.7317,-95.2428,0201,-6.81,-17.74,19.0000,201.0000
1983-04-26 02:00:00 UTC,2445450.583333,28.7317,-95.2428,0201,-6.50,-17.85,19.0000,200.0000
1983-04-26 02:30:00 UTC,2445450.604167,28.7317,-95.2428,0201,-5.86,-17.02,18.0000,199.0000
1983-04-26 03:00:00 UTC,2445450.625000,28.7317,-95.2428,0201,-5.25,-16.17,17.0000,198.0000
1983-04-26 03:30:00 UTC,2445450.645833,28.7317,-95.2428,0201,-4.97,-16.26,17.0000,197.0000
1983-04-26 04:00:00 UTC,2445450.666667,28.7317,-95.2428,0201,-4.41,-15.38,16.0000,196.0000
1983-04-26 04:30:00 UTC,2445450.687500,28.7317,-95.2428,0201,-4.41,-15.38,16.0000,196.0000
1983-04-26 05:00:00 UTC,2445450.708333,28.7317,-95.2428,0201,-4.11,-16.50,17.0000,194.0000
1983-04-26 05:30:00 UTC,2445450.729167,28.7317,-95.2428,0201,-2.50,-15.80,16.0000,189.0000
1983-04-26 06:00:00 UTC,2445450.750000,28.7317,-95.2428,0201,-1.95,-15.88,16.0000,187.0000
1983-04-26 06:30:00 UTC,2445450.770833,28.7317,-95.2428,0201,-1.95,-15.88,16.0000,187.0000
1983-04-26 07:00:00 UTC,2445450.791667,28.7317,-95.2428,0201,-2.23,-15.84,16.0000,188.0000
1983-04-26 07:30:00 UTC,2445450.812500,28.7317,-95.2428,0201,-2.50,-15.80,16.0000,189.0000
1983-04-26 08:00:00 UTC,2445450.833333,28.7317,-95.2428,0201,-2.78,-15.76,16.0000,190.0000
1983-04-26 08:30:00 UTC,2445450.854167,28.7317,-95.2428,0201,-3.05,-15.71,16.0000,191.0000
1983-04-26 09:00:00 UTC,2445450.875000,28.7317,-95.2428,0201,-3.82,-16.56,17.0000,193.0000
1983-04-26 09:30:00 UTC,2445450.895833,28.7317,-95.2428,0201,-5.53,-16.07,17.0000,199.0000
1983-04-26 10:00:00 UTC,2445450.916667,28.7317,-95.2428,0201,-7.32,-16.44,18.0000,204.0000
1983-04-26 10:30:00 UTC,2445450.937500,28.7317,-95.2428,0201,-7.61,-16.31,18.0000,205.0000
1983-04-26 11:00:00 UTC,2445450.958333,28.7317,-95.2428,0201,-8.33,-17.08,19.0000,206.0000
1983-04-26 11:30:00 UTC,2445450.979167,28.7317,-95.2428,0201,-8.33,-17.08,19.0000,206.0000
1983-04-26 12:00:00 UTC,2445451.000000,28.7317,-95.2428,0201,-7.89,-16.18,18.0000,206.0000
1983-04-26 12:30:00 UTC,2445451.020833,28.7317,-95.2428,0201,-7.32,-16.44,18.0000,204.0000
1983-04-26 13:00:00 UTC,2445451.041667,28.7317,-95.2428,0201,-6.74,-16.69,18.0000,202.0000
1983-04-26 13:30:00 UTC,2445451.062500,28.7317,-95.2428,0201,-5.81,-15.97,17.0000,200.0000
1983-04-26 14:00:00 UTC,2445451.083333,28.7317,-95.2428,0201,-4.94,-15.22,16.0000,198.0000
1983-04-26 14:30:00 UTC,2445451.104167,28.7317,-95.2428,0201,-4.64,-14.27,15.0000,198.0000
1983-04-26 15:00:00 UTC,2445451.125000,28.7317,-95.2428,0201,-4.13,-14.42,15.0000,196.0000
1983-04-26 15:30:00 UTC,2445451.145833,28.7317,-95.2428,0201,-3.62,-13.52,14.0000,195.0000
1983-04-26 16:00:00 UTC,2445451.166667,28.7317,-95.2428,0201,-3.14,-12.61,13.0000,194.0000
1983-04-26 16:30:00 UTC,2445451.187500,28.7317,-95.2428,0201,-2.49,-11.74,12.0000,192.0000
1983-04-26 17:00:00 UTC,2445451.208333,28.7317,-95.2428,0201,-2.29,-10.76,11.0000,192.0000
1983-04-26 17:30:00 UTC,2445451.229167,28.7317,-95.2428,0201,-2.47,-10.72,11.0000,193.0000
1983-04-26 18:00:00 UTC,2445451.250000,28.7317,-95.2428,0201,-3.03,-10.57,11.0000,196.0000
1983-04-26 18:30:00 UTC,2445451.270833,28.7317,-95.2428,0201,-3.22,-10.52,11.0000,197.0000
1983-04-26 19:00:00 UTC,2445451.291667,28.7317,-95.2428,0201,-3.22,-10.52,11.0000,197.0000
1983-04-26 19:30:00 UTC,2445451.312500,28.7317,-95.2428,0201,-3.03,-10.57,11.0000,196.0000
1983-04-26 20:00:00 UTC,2445451.333333,28.7317,-95.2428,0201,-3.22,-10.52,11.0000,197.0000
1983-04-26 20:30:00 UTC,2445451.354167,28.7317,-95.2428,0201,-4.30,-11.20,12.0000,201.0000
1983-04-26 21:00:00 UTC,2445451.375000,28.7317,-95.2428,0201,-5.29,-11.88,13.0000,204.0000
1983-04-26 21:30:00 UTC,2445451.395833,28.7317,-95.2428,0201,-5.49,-11.78,13.0000,205.0000
1983-04-26 22:00:00 UTC,2445451.416667,28.7317,-95.2428,0201,-5.24,-12.98,14.0000,202.0000
1983-04-26 22:30:00 UTC,2445451.437500,28.7317,-95.2428,0201,-4.64,-14.27,15.0000,198.0000
1983-04-26 23:00:00 UTC,2445451.458333,28.7317,-95.2428,0201,-3.88,-14.49,15.0000,195.0000
1983-04-26 23:30:00 UTC,2445451.479167,28.7317,-95.2428,0201,-4.41,-15.38,16.0000,196.0000
1983-04-27 00:00:00 UTC,2445451.500000,28.7317,-95.2428,0201,-5.25,-16.17,17.0000,198.0000
1983-04-27 00:30:00 UTC,2445451.520833,28.7317,-95.2428,0201,-6.45,-16.80,18.0000,201.0000
1983-04-27 01:00:00 UTC,2445451.541667,28.7317,-95.2428,0201,-7.03,-16.57,18.0000,203.0000
1983-04-27 01:30:00 UTC,2445451.562500,28.7317,-95.2428,0201,-6.09,-15.87,17.0000,201.0000
1983-04-27 02:00:00 UTC,2445451.583333,28.7317,-95.2428,0201,-5.81,-15.97,17.0000,200.0000
1983-04-27 02:30:00 UTC,2445451.604167,28.7317,-95.2428,0201,-5.53,-16.07,17.0000,199.0000
1983-04-27 03:00:00 UTC,2445451.625000,28.7317,-95.2428,0201,-5.25,-16.17,17.0000,198.0000
1983-04-27 03:30:00 UTC,2445451.645833,28.7317,-95.2428,0201,-4.97,-16.26,17.0000,197.0000
1983-04-27 04:00:00 UTC,2445451.666667,28.7317,-95.2428,0201,-4.69,-16.34,17.0000,196.0000
1983-04-27 04:30:00 UTC,2445451.687500,28.7317,-95.2428,0201,-4.69,-16.34,17.0000,196.0000
1983-04-27 05:00:00 UTC,2445451.708333,28.7317,-95.2428,0201,-5.21,-15.13,16.0000,199.0000
1983-04-27 05:30:00 UTC,2445451.729167,28.7317,-95.2428,0201,-5.73,-14.94,16.0000,201.0000
1983-04-27 06:00:00 UTC,2445451.750000,28.7317,-95.2428,0201,-5.81,-15.97,17.0000,200.0000
1983-04-27 06:30:00 UTC,2445451.770833,28.7317,-95.2428,0201,-5.21,-15.13,16.0000,199.0000
1983-04-27 07:00:00 UTC,2445451.791667,28.7317,-95.2428,0201,-4.69,-16.34,17.0000,196.0000
1983-04-27 07:30:00 UTC,2445451.812500,28.7317,-95.2428,0201,-4.97,-16.26,17.0000,197.0000
1983-04-27 08:00:00 UTC,2445451.833333,28.7317,-95.2428,0201,-6.19,-17.96,19.0000,199.0000
1983-04-27 08:30:00 UTC,2445451.854167,28.7317,-95.2428,0201,-7.17,-18.67,20.0000,201.0000
1983-04-27 09:00:00 UTC,2445451.875000,28.7317,-95.2428,0201,-8.62,-21.33,23.0000,202.0000
1983-04-27 09:30:00 UTC,2445451.895833,28.7317,-95.2428,0201,-9.77,-23.01,25.0000,203.0000
1983-04-27 10:00:00 UTC,2445451.916667,28.7317,-95.2428,0201,-10.58,-23.75,26.0000,204.0000
1983-04-27 10:30:00 UTC,2445451.937500,28.7317,-95.2428,0201,-11.41,-24.47,27.0000,205.0000
1983-04-27 11:00:00 UTC,2445451.958333,28.7317,-95.2428,0201,-10.99,-23.56,26.0000,205.0000
1983-04-27 11:30:00 UTC,2445451.979167,28.7317,-95.2428,0201,-10.58,-23.75,26.0000,204.0000
1983-04-27 12:00:00 UTC,2445452.000000,28.7317,-95.2428,0201,-10.96,-22.47,25.0000,206.0000
1983-04-27 12:30:00 UTC,2445452.020833,28.7317,-95.2428,0201,-10.08,-20.67,23.0000,206.0000
1983-04-27 13:00:00 UTC,2445452.041667,28.7317,-95.2428,0201,-7.81,-18.41,20.0000,203.0000
1983-04-27 13:30:00 UTC,2445452.062500,28.7317,-95.2428,0201,-6.81,-17.74,19.0000,201.0000
1983-04-27 14:00:00 UTC,2445452.083333,28.7317,-95.2428,0201,-6.84,-18.79,20.0000,200.0000
1983-04-27 14:30:00 UTC,2445452.104167,28.7317,-95.2428,0201,-6.84,-18.79,20.0000,200.0000
1983-04-27 15:00:00 UTC,2445452.125000,28.7317,-95.2428,0201,-5.24,-18.26,19.0000,196.0000
1983-04-27 15:30:00 UTC,2445452.145833,28.7317,-95.2428,0201,-3.13,-17.73,18.0000,190.0000
1983-04-27 16:00:00 UTC,2445452.166667,28.7317,-95.2428,0201,-2.19,-17.87,18.0000,187.0000
1983-04-27 16:30:00 UTC,2445452.187500,28.7317,-95.2428,0201,-3.30,-18.71,19.0000,190.0000
1983-04-27 17:00:00 UTC,2445452.208333,28.7317,-95.2428,0201,-4.16,-19.56,20.0000,192.0000
1983-04-27 17:30:00 UTC,2445452.229167,28.7317,-95.2428,0201,-4.27,-18.51,19.0000,193.0000
1983-04-27 18:00:00 UTC,2445452.250000,28.7317,-95.2428,0201,-4.60,-18.44,19.0000,194.0000
1983-04-27 18:30:00 UTC,2445452.270833,28.7317,-95.2428,0201,-4.60,-18.44,19.0000,194.0000
1983-04-27 19:00:00 UTC,2445452.291667,28.7317,-95.2428,0201,-4.35,-17.47,18.0000,194.0000
1983-04-27 19:30:00 UTC,2445452.312500,28.7317,-95.2428,0201,-4.05,-17.54,18.0000,193.0000
1983-04-27 20:00:00 UTC,2445452.333333,28.7317,-95.2428,0201,-3.95,-18.58,19.0000,192.0000
1983-04-27 20:30:00 UTC,2445452.354167,28.7317,-95.2428,0201,-4.50,-19.49,20.0000,193.0000
1983-04-27 21:00:00 UTC,2445452.375000,28.7317,-95.2428,0201,-4.84,-19.41,20.0000,194.0000
1983-04-27 21:30:00 UTC,2445452.395833,28.7317,-95.2428,0201,-5.44,-20.28,21.0000,195.0000
1983-04-27 22:00:00 UTC,2445452.416667,28.7317,-95.2428,0201,-6.43,-21.04,22.0000,197.0000
1983-04-27 22:30:00 UTC,2445452.437500,28.7317,-95.2428,0201,-7.87,-21.61,23.0000,200.0000
1983-04-27 23:00:00 UTC,2445452.458333,28.7317,-95.2428,0201,-8.99,-22.25,24.0000,202.0000
1983-04-27 23:30:00 UTC,2445452.479167,28.7317,-95.2428,0201,-7.52,-20.67,22.0000,200.0000
1983-04-28 00:00:00 UTC,2445452.500000,28.7317,-95.2428,0201,-6.84,-18.79,20.0000,200.0000
1983-04-28 00:30:00 UTC,2445452.520833,28.7317,-95.2428,0201,-8.54,-19.18,21.0000,204.0000
1983-04-28 01:00:00 UTC,2445452.541667,28.7317,-95.2428,0201,-9.99,-19.60,22.0000,207.0000
1983-04-28 01:30:00 UTC,2445452.562500,28.7317,-95.2428,0201,-9.99,-19.60,22.0000,207.0000
1983-04-28 02:00:00 UTC,2445452.583333,28.7317,-95.2428,0201,-9.21,-18.87,21.0000,206.0000
1983-04-28 02:30:00 UTC,2445452.604167,28.7317,-95.2428,0201,-8.54,-19.18,21.0000,204.0000
1983-04-28 03:00:00 UTC,2445452.625000,28.7317,-95.2428,0201,-7.87,-19.47,21.0000,202.0000
1983-04-28 03:30:00 UTC,2445452.645833,28.7317,-95.2428,0201,-6.84,-18.79,20.0000,200.0000
1983-04-28 04:00:00 UTC,2445452.666667,28.7317,-95.2428,0201,-5.85,-19.13,20.0000,197.0000
1983-04-28 04:30:00 UTC,2445452.687500,28.7317,-95.2428,0201,-6.84,-19.86,21.0000,199.0000
1983-04-28 05:00:00 UTC,2445452.708333,28.7317,-95.2428,0201,-7.49,-18.54,20.0000,202.0000
1983-04-28 05:30:00 UTC,2445452.729167,28.7317,-95.2428,0201,-7.73,-17.36,19.0000,204.0000
1983-04-28 06:00:00 UTC,2445452.750000,28.7317,-95.2428,0201,-8.63,-16.93,19.0000,207.0000
1983-04-28 06:30:00 UTC,2445452.770833,28.7317,-95.2428,0201,-8.92,-16.78,19.0000,208.0000
1983-04-28 07:00:00 UTC,2445452.791667,28.7317,-95.2428,0201,-7.98,-15.01,17.0000,208.0000
1983-04-28 07:30:00 UTC,2445452.812500,28.7317,-95.2428,0201,-7.26,-14.26,16.0000,207.0000
1983-04-28 08:00:00 UTC,2445452.833333,28.7317,-95.2428,0201,-7.04,-13.24,15.0000,208.0000
1983-04-28 08:30:00 UTC,2445452.854167,28.7317,-95.2428,0201,-6.15,-9.12,11.0000,214.0000
1983-04-28 09:00:00 UTC,2445452.875000,28.7317,-95.2428,0201,-3.69,-4.73,6.0000,218.0000
1983-04-28 09:30:00 UTC,2445452.895833,28.7317,-95.2428,0201,-0.75,-1.85,2.0000,202.0000
1983-04-28 10:00:00 UTC,2445452.916667,28.7317,-95.2428,0201,1.64,-1.15,2.0000,125.0000
1983-04-28 10:30:00 UTC,2445452.937500,28.7317,-95.2428,0201,2.82,-1.03,3.0000,110.0000
1983-04-28 11:00:00 UTC,2445452.958333,28.7317,-95.2428,0201,3.39,-2.12,4.0000,122.0000
1983-04-28 11:30:00 UTC,2445452.979167,28.7317,-95.2428,0201,3.69,-4.73,6.0000,142.0000
1983-04-28 12:00:00 UTC,2445453.000000,28.7317,-95.2428,0201,4.09,-8.02,9.0000,153.0000
1983-04-28 12:30:00 UTC,2445453.020833,28.7317,-95.2428,0201,4.66,-12.14,13.0000,159.0000
1983-04-28 13:00:00 UTC,2445453.041667,28.7317,-95.2428,0201,4.23,-12.29,13.0000,161.0000
1983-04-28 13:30:00 UTC,2445453.062500,28.7317,-95.2428,0201,3.52,-8.28,9.0000,157.0000
1983-04-28 14:00:00 UTC,2445453.083333,28.7317,-95.2428,0201,3.63,-7.13,8.0000,153.0000
1983-04-28 14:30:00 UTC,2445453.104167,28.7317,-95.2428,0201,4.30,-10.13,11.0000,157.0000
1983-04-28 15:00:00 UTC,2445453.125000,28.7317,-95.2428,0201,4.02,-12.36,13.0000,162.0000
1983-04-28 15:30:00 UTC,2445453.145833,28.7317,-95.2428,0201,2.86,-14.72,15.0000,169.0000
1983-04-28 16:00:00 UTC,2445453.166667,28.7317,-95.2428,0201,0.52,-14.99,15.0000,178.0000
1983-04-28 16:30:00 UTC,2445453.187500,28.7317,-95.2428,0201,-1.31,-14.94,15.0000,185.0000
1983-04-28 17:00:00 UTC,2445453.208333,28.7317,-95.2428,0201,-2.86,-14.72,15.0000,191.0000
1983-04-28 17:30:00 UTC,2445453.229167,28.7317,-95.2428,0201,-3.15,-13.64,14.0000,193.0000
1983-04-28 18:00:00 UTC,2445453.250000,28.7317,-95.2428,0201,-4.45,-12.22,13.0000,200.0000
1983-04-28 18:30:00 UTC,2445453.270833,28.7317,-95.2428,0201,-5.16,-9.71,11.0000,208.0000
1983-04-28 19:00:00 UTC,2445453.291667,28.7317,-95.2428,0201,-4.36,-7.87,9.0000,209.0000
1983-04-28 19:30:00 UTC,2445453.312500,28.7317,-95.2428,0201,-4.24,-6.78,8.0000,212.0000
1983-04-28 20:00:00 UTC,2445453.333333,28.7317,-95.2428,0201,-4.77,-5.12,7.0000,223.0000
1983-04-28 20:30:00 UTC,2445453.354167,28.7317,-95.2428,0201,-4.77,-5.12,7.0000,223.0000
1983-04-28 21:00:00 UTC,2445453.375000,28.7317,-95.2428,0201,-3.18,-6.24,7.0000,207.0000
1983-04-28 21:30:00 UTC,2445453.395833,28.7317,-95.2428,0201,-3.37,-8.34,9.0000,202.0000
1983-04-28 22:00:00 UTC,2445453.416667,28.7317,-95.2428,0201,-4.38,-8.99,10.0000,206.0000
1983-04-28 22:30:00 UTC,2445453.437500,28.7317,-95.2428,0201,-4.36,-7.87,9.0000,209.0000
1983-04-28 23:00:00 UTC,2445453.458333,28.7317,-95.2428,0201,-3.18,-5.09,6.0000,212.0000
1983-04-28 23:30:00 UTC,2445453.479167,28.7317,-95.2428,0201,-3.18,-5.09,6.0000,212.0000
1983-04-29 00:00:00 UTC,2445453.500000,28.7317,-95.2428,0201,-3.50,-6.06,7.0000,210.0000
1983-04-29 00:30:00 UTC,2445453.520833,28.7317,-95.2428,0201,-3.63,-7.13,8.0000,207.0000
1983-04-29 01:00:00 UTC,2445453.541667,28.7317,-95.2428,0201,-4.23,-7.95,9.0000,208.0000
1983-04-29 01:30:00 UTC,2445453.562500,28.7317,-95.2428,0201,-4.85,-8.75,10.0000,209.0000
1983-04-29 02:00:00 UTC,2445453.583333,28.7317,-95.2428,0201,-4.85,-8.75,10.0000,209.0000
1983-04-29 02:30:00 UTC,2445453.604167,28.7317,-95.2428,0201,-4.36,-7.87,9.0000,209.0000
1983-04-29 03:00:00 UTC,2445453.625000,28.7317,-95.2428,0201,-3.63,-7.13,8.0000,207.0000
1983-04-29 03:30:00 UTC,2445453.645833,28.7317,-95.2428,0201,-3.51,-7.19,8.0000,206.0000
1983-04-29 04:00:00 UTC,2445453.666667,28.7317,-95.2428,0201,-3.07,-6.29,7.0000,206.0000
1983-04-29 04:30:00 UTC,2445453.687500,28.7317,-95.2428,0201,-1.95,-4.60,5.0000,203.0000
1983-04-29 05:00:00 UTC,2445453.708333,28.7317,-95.2428,0201,-1.04,-3.86,4.0000,195.0000
1983-04-29 05:30:00 UTC,2445453.729167,28.7317,-95.2428,0201,-0.42,-3.98,4.0000,186.0000
1983-04-29 06:00:00 UTC,2445453.750000,28.7317,-95.2428,0201,-0.14,-4.00,4.0000,182.0000
1983-04-29 06:30:00 UTC,2445453.770833,28.7317,-95.2428,0201,-0.52,-4.97,5.0000,186.0000
1983-04-29 07:00:00 UTC,2445453.791667,28.7317,-95.2428,0201,-1.55,-5.80,6.0000,195.0000
1983-04-29 07:30:00 UTC,2445453.812500,28.7317,-95.2428,0201,-2.85,-6.39,7.0000,204.0000
1983-04-29 08:00:00 UTC,2445453.833333,28.7317,-95.2428,0201,-3.18,-6.24,7.0000,207.0000
1983-04-29 08:30:00 UTC,2445453.854167,28.7317,-95.2428,0201,-3.07,-6.29,7.0000,206.0000
1983-04-29 09:00:00 UTC,2445453.875000,28.7317,-95.2428,0201,-2.96,-6.34,7.0000,205.0000
1983-04-29 09:30:00 UTC,2445453.895833,28.7317,-95.2428,0201,-2.96,-6.34,7.0000,205.0000
1983-04-29 10:00:00 UTC,2445453.916667,28.7317,-95.2428,0201,-2.28,-6.62,7.0000,199.0000
1983-04-29 10:30:00 UTC,2445453.937500,28.7317,-95.2428,0201,-1.04,-5.91,6.0000,190.0000
1983-04-29 11:00:00 UTC,2445453.958333,28.7317,-95.2428,0201,-0.73,-5.96,6.0000,187.0000
1983-04-29 11:30:00 UTC,2445453.979167,28.7317,-95.2428,0201,-1.25,-5.87,6.0000,192.0000
1983-04-29 12:00:00 UTC,2445454.000000,28.7317,-95.2428,0201,-1.85,-5.71,6.0000,198.0000
1983-04-29 12:30:00 UTC,2445454.020833,28.7317,-95.2428,0201,-2.25,-5.56,6.0000,202.0000
1983-04-29 13:00:00 UTC,2445454.041667,28.7317,-95.2428,0201,-2.39,-6.58,7.0000,200.0000
1983-04-29 13:30:00 UTC,2445454.062500,28.7317,-95.2428,0201,-1.46,-6.85,7.0000,192.0000
1983-04-29 14:00:00 UTC,2445454.083333,28.7317,-95.2428,0201,-0.56,-7.98,8.0000,184.0000
1983-04-29 14:30:00 UTC,2445454.104167,28.7317,-95.2428,0201,-0.42,-7.99,8.0000,183.0000
1983-04-29 15:00:00 UTC,2445454.125000,28.7317,-95.2428,0201,-0.70,-7.97,8.0000,185.0000
1983-04-29 15:30:00 UTC,2445454.145833,28.7317,-95.2428,0201,-0.97,-7.94,8.0000,187.0000
1983-04-29 16:00:00 UTC,2445454.166667,28.7317,-95.2428,0201,-0.73,-6.96,7.0000,186.0000
1983-04-29 16:30:00 UTC,2445454.187500,28.7317,-95.2428,0201,-0.21,-6.00,6.0000,182.0000
1983-04-29 17:00:00 UTC,2445454.208333,28.7317,-95.2428,0201,0.26,-4.99,5.0000,177.0000
1983-04-29 17:30:00 UTC,2445454.229167,28.7317,-95.2428,0201,0.61,-4.96,5.0000,173.0000
1983-04-29 18:00:00 UTC,2445454.250000,28.7317,-95.2428,0201,0.61,-4.96,5.0000,173.0000
1983-04-29 18:30:00 UTC,2445454.270833,28.7317,-95.2428,0201,0.52,-4.97,5.0000,174.0000
1983-04-29 19:00:00 UTC,2445454.291667,28.7317,-95.2428,0201,0.37,-2.98,3.0000,173.0000
1983-04-29 19:30:00 UTC,2445454.312500,28.7317,-95.2428,0201,0.28,-1.98,2.0000,172.0000
1983-04-29 20:00:00 UTC,2445454.333333,28.7317,-95.2428,0201,0.17,-1.99,2.0000,175.0000
1983-04-29 20:30:00 UTC,2445454.354167,28.7317,-95.2428,0201,0.16,-3.00,3.0000,177.0000
1983-04-29 21:00:00 UTC,2445454.375000,28.7317,-95.2428,0201,0.42,-3.98,4.0000,174.0000
1983-04-29 21:30:00 UTC,2445454.395833,28.7317,-95.2428,0201,0.31,-5.99,6.0000,177.0000
1983-04-29 22:00:00 UTC,2445454.416667,28.7317,-95.2428,0201,-0.70,-7.97,8.0000,185.0000
1983-04-29 22:30:00 UTC,2445454.437500,28.7317,-95.2428,0201,-3.51,-11.48,12.0000,197.0000
1983-04-29 23:00:00 UTC,2445454.458333,28.7317,-95.2428,0201,-6.64,-15.65,17.0000,203.0000
1983-04-29 23:30:00 UTC,2445454.479167,28.7317,-95.2428,0201,-7.12,-17.62,19.0000,202.0000
1983-04-30 00:00:00 UTC,2445454.500000,28.7317,-95.2428,0201,-5.56,-17.12,18.0000,198.0000
1983-04-30 00:30:00 UTC,2445454.520833,28.7317,-95.2428,0201,-4.69,-16.34,17.0000,196.0000
1983-04-30 01:00:00 UTC,2445454.541667,28.7317,-95.2428,0201,-5.26,-17.21,18.0000,197.0000
1983-04-30 01:30:00 UTC,2445454.562500,28.7317,-95.2428,0201,-5.56,-18.17,19.0000,197.0000
1983-04-30 02:00:00 UTC,2445454.583333,28.7317,-95.2428,0201,-7.18,-19.73,21.0000,200.0000
1983-04-30 02:30:00 UTC,2445454.604167,28.7317,-95.2428,0201,-7.87,-19.47,21.0000,202.0000
1983-04-30 03:00:00 UTC,2445454.625000,28.7317,-95.2428,0201,-6.74,-16.69,18.0000,202.0000
1983-04-30 03:30:00 UTC,2445454.645833,28.7317,-95.2428,0201,-4.23,-12.29,13.0000,199.0000
1983-04-30 04:00:00 UTC,2445454.666667,28.7317,-95.2428,0201,-2.76,-9.61,10.0000,196.0000
1983-04-30 04:30:00 UTC,2445454.687500,28.7317,-95.2428,0201,-3.40,-10.46,11.0000,198.0000
1983-04-30 05:00:00 UTC,2445454.708333,28.7317,-95.2428,0201,-5.02,-13.07,14.0000,201.0000
1983-04-30 05:30:00 UTC,2445454.729167,28.7317,-95.2428,0201,-6.25,-14.73,16.0000,203.0000
1983-04-30 06:00:00 UTC,2445454.750000,28.7317,-95.2428,0201,-7.61,-16.31,18.0000,205.0000
1983-04-30 06:30:00 UTC,2445454.770833,28.7317,-95.2428,0201,-9.21,-16.62,19.0000,209.0000
1983-04-30 07:00:00 UTC,2445454.791667,28.7317,-95.2428,0201,-10.60,-16.96,20.0000,212.0000
1983-04-30 07:30:00 UTC,2445454.812500,28.7317,-95.2428,0201,-9.79,-16.29,19.0000,211.0000
1983-04-30 08:00:00 UTC,2445454.833333,28.7317,-95.2428,0201,-7.18,-15.41,17.0000,205.0000
1983-04-30 08:30:00 UTC,2445454.854167,28.7317,-95.2428,0201,-6.76,-14.50,16.0000,205.0000
1983-04-30 09:00:00 UTC,2445454.875000,28.7317,-95.2428,0201,-7.95,-12.72,15.0000,212.0000
1983-04-30 09:30:00 UTC,2445454.895833,28.7317,-95.2428,0201,-9.63,-12.78,16.0000,217.0000
1983-04-30 10:00:00 UTC,2445454.916667,28.7317,-95.2428,0201,-10.50,-12.08,16.0000,221.0000
1983-04-30 10:30:00 UTC,2445454.937500,28.7317,-95.2428,0201,-9.37,-10.40,14.0000,222.0000
1983-04-30 11:00:00 UTC,2445454.958333,28.7317,-95.2428,0201,-8.00,-10.24,13.0000,218.0000
1983-04-30 11:30:00 UTC,2445454.979167,28.7317,-95.2428,0201,-7.46,-10.65,13.0000,215.0000
1983-04-30 12:00:00 UTC,2445455.000000,28.7317,-95.2428,0201,-8.23,-11.33,14.0000,216.0000
1983-04-30 12:30:00 UTC,2445455.020833,28.7317,-95.2428,0201,-10.28,-12.26,16.0000,220.0000
1983-04-30 13:00:00 UTC,2445455.041667,28.7317,-95.2428,0201,-11.59,-12.43,17.0000,223.0000
1983-04-30 13:30:00 UTC,2445455.062500,28.7317,-95.2428,0201,-11.38,-12.63,17.0000,222.0000
1983-04-30 14:00:00 UTC,2445455.083333,28.7317,-95.2428,0201,-11.38,-12.63,17.0000,222.0000
1983-04-30 14:30:00 UTC,2445455.104167,28.7317,-95.2428,0201,-12.02,-12.02,17.0000,225.0000
1983-04-30 15:00:00 UTC,2445455.125000,28.7317,-95.2428,0201,-12.02,-12.02,17.0000,225.0000
1983-04-30 15:30:00 UTC,2445455.145833,28.7317,-95.2428,0201,-11.38,-12.63,17.0000,222.0000
1983-04-30 16:00:00 UTC,2445455.166667,28.7317,-95.2428,0201,-10.70,-13.21,17.0000,219.0000
1983-04-30 16:30:00 UTC,2445455.187500,28.7317,-95.2428,0201,-11.15,-12.83,17.0000,221.0000
1983-04-30 17:00:00 UTC,2445455.208333,28.7317,-95.2428,0201,-6.92,-8.55,11.0000,219.0000
1983-04-30 17:30:00 UTC,2445455.229167,28.7317,-95.2428,0201,-0.84,-5.94,6.0000,188.0000
1983-04-30 18:00:00 UTC,2445455.250000,28.7317,-95.2428,0201,2.85,-6.39,7.0000,156.0000
1983-04-30 18:30:00 UTC,2445455.270833,28.7317,-95.2428,0201,3.37,-8.34,9.0000,158.0000
1983-04-30 19:00:00 UTC,2445455.291667,28.7317,-95.2428,0201,2.92,-9.56,10.0000,163.0000
1983-04-30 19:30:00 UTC,2445455.312500,28.7317,-95.2428,0201,1.91,-9.82,10.0000,169.0000
1983-04-30 20:00:00 UTC,2445455.333333,28.7317,-95.2428,0201,0.87,-9.96,10.0000,175.0000
1983-04-30 20:30:00 UTC,2445455.354167,28.7317,-95.2428,0201,0.00,-10.00,10.0000,180.0000
1983-04-30 21:00:00 UTC,2445455.375000,28.7317,-95.2428,0201,0.00,-10.00,10.0000,180.0000
1983-04-30 21:30:00 UTC,2445455.395833,28.7317,-95.2428,0201,1.05,-9.95,10.0000,174.0000
1983-04-30 22:00:00 UTC,2445455.416667,28.7317,-95.2428,0201,2.47,-10.72,11.0000,167.0000
1983-04-30 22:30:00 UTC,2445455.437500,28.7317,-95.2428,0201,2.66,-10.67,11.0000,166.0000
1983-04-30 23:00:00 UTC,2445455.458333,28.7317,-95.2428,0201,1.88,-11.85,12.0000,171.0000
1983-04-30 23:30:00 UTC,2445455.479167,28.7317,-95.2428,0201,1.13,-12.95,13.0000,175.0000
1983-05-01 00:00:00 UTC,2445455.500000,28.7317,-95.2428,0201,1.83,-14.89,15.0000,173.0000
1983-05-01 00:30:00 UTC,2445455.520833,28.7317,-95.2428,0201,1.39,-15.94,16.0000,175.0000
1983-05-01 01:00:00 UTC,2445455.541667,28.7317,-95.2428,0201,-0.59,-16.99,17.0000,182.0000
1983-05-01 01:30:00 UTC,2445455.562500,28.7317,-95.2428,0201,-1.78,-16.91,17.0000,186.0000
1983-05-01 02:00:00 UTC,2445455.583333,28.7317,-95.2428,0201,-2.95,-16.74,17.0000,190.0000
1983-05-01 02:30:00 UTC,2445455.604167,28.7317,-95.2428,0201,-3.24,-16.69,17.0000,191.0000
1983-05-01 03:00:00 UTC,2445455.625000,28.7317,-95.2428,0201,-2.78,-15.76,16.0000,190.0000
1983-05-01 03:30:00 UTC,2445455.645833,28.7317,-95.2428,0201,-2.35,-14.82,15.0000,189.0000
1983-05-01 04:00:00 UTC,2445455.666667,28.7317,-95.2428,0201,-2.49,-11.74,12.0000,192.0000
1983-05-01 04:30:00 UTC,2445455.687500,28.7317,-95.2428,0201,-2.33,-8.69,9.0000,195.0000
1983-05-01 05:00:00 UTC,2445455.708333,28.7317,-95.2428,0201,-1.94,-7.76,8.0000,194.0000